"TOA5","AWS1","CR1000","7964","CR1000.Std.14","CPU:AWS1_114.CR1","64363","TBL110"
"TIMESTAMP","RECORD","Wind_spd_WVc(1)","Wind_spd_WVc(2)","Air_Temp_Avg","Humidity_Avg","SW_upper_Wm2_Avg","Rain_Tot","Press_Avg","Issui_Tot","Depth_cm","SR50A_Raw","Quality","Ground_Temp_Avg(1)","Ground_Temp_Avg(2)","SW_lower_Wm2_Avg","Albedo_Avg","SWC_per(1)","SWC_per(2)","Period(1)","Period(2)"
"TS","RN","","","","","","","","","","","","","","","","","","",""
"","","WVc","WVc","Avg","Avg","Avg","Tot","Avg","Tot","Smp","Smp","Smp","Avg","Avg","Avg","Avg","Smp","Smp","Smp","Smp"
"2017-08-28 00:00:00",303181,0.001,87,16.32,92,0,0,870.6297,0,-1.036,3.099,194,21.14,20.82,0.4547449,0,49.19,56.35,33.09,34.83
"2017-08-28 00:10:00",303182,0.064,83.5,16.49,90.6,0.05502397,0,870.6445,0,-1.068,3.097,194,21.15,20.81,0.6555906,0.9,49.13,56.35,33.08,34.83
"2017-08-28 00:20:00",303183,0.14,70.83,16.67,90.6,0.1454205,0,870.6406,0,-0.356,3.091,195,21.11,20.82,0.6783278,1.438,49.13,56.35,33.08,34.83
"2017-08-28 00:30:00",303184,0.212,67.86,16.71,91.2,0,0,870.8736,0,-0.53,3.092,195,21.1,20.83,0.5343253,0,49.13,56.35,33.08,34.83
"2017-08-28 00:40:00",303185,0.279,139.9,16.51,92.3,0,0,870.7032,0,-1.194,3.101,192,21.06,20.81,0.07958036,0,49.13,56.35,33.08,34.83
"2017-08-28 00:50:00",303186,0.338,94.5,16.21,94.4,0,0,870.4811,0,-0.837,3.098,197,21.04,20.82,0.007579082,0,49.19,56.29,33.09,34.82
"2017-08-28 01:00:00",303187,0.384,136.8,16.17,95.3,0,0,870.3899,0,-1.146,3.101,187,21.09,20.83,0.05684311,0,49.13,56.29,33.08,34.82
"2017-08-28 01:10:00",303188,0.441,140.1,16.14,96.5,0,0,870.1173,0,-1.193,3.101,192,21.03,20.81,0.05305357,0,49.13,56.35,33.08,34.83
"2017-08-28 01:20:00",303189,0.38,75.73,16.23,96.8,0,0,870.0128,0,-0.956,3.098,196,21.02,20.84,0.3031633,0,49.13,56.29,33.08,34.82
"2017-08-28 01:30:00",303190,0.367,86.9,16.38,94.8,0,0,870.0273,0,-0.877,3.097,188,21.02,20.83,0.4547449,0,49.13,56.29,33.08,34.82
"2017-08-28 01:40:00",303191,0.114,87.8,16.36,94.1,0,0,869.8845,0,-1.091,3.1,193,21,20.84,0.07579082,0,49.13,56.35,33.08,34.83
"2017-08-28 01:50:00",303192,0.077,76.39,16.17,94.1,0,0,869.8764,0,-35.88,3.439,213,21.01,20.84,0,0,49.13,56.29,33.08,34.82
"2017-08-28 02:00:00",303193,0.19,70.11,16.04,94.4,0,0,869.8906,0,-0.409,3.095,194,21.01,20.86,0,0,49.13,56.35,33.08,34.83
"2017-08-28 02:10:00",303194,0.106,52.49,15.89,95.6,0,0,869.9239,0,0.098,3.091,204,21.01,20.85,0,0,49.13,56.29,33.08,34.82
"2017-08-28 02:20:00",303195,0.104,1.928,15.76,95.6,0,0,870.0456,0,-0.779,3.1,188,20.96,20.84,0.03789541,0,49.13,56.29,33.08,34.82
"2017-08-28 02:30:00",303196,0.181,86.5,15.66,96,0,0,870.0129,0,-0.683,3.1,211,20.9,20.85,0.04168495,0,49.13,56.29,33.08,34.82
"2017-08-28 02:40:00",303197,0.017,64.33,15.3,97.1,0,0,869.9285,0,-36.3,3.448,206,20.93,20.84,0,0,49.13,56.29,33.08,34.82
"2017-08-28 02:50:00",303198,0,0,15.33,99.1,0,0,869.9109,0,4.48,3.05,413,20.9,20.84,0.231162,0,49.13,56.29,33.08,34.82
"2017-08-28 03:00:00",303199,0.067,114.9,15.26,98.1,0,0,869.8823,0,4.408,3.053,381,20.84,20.84,0.2576888,0,49.08,56.29,33.07,34.82
"2017-08-28 03:10:00",303200,0.041,160.1,15.09,99.3,0,0,869.817,0,4.1,3.056,397,20.85,20.84,0.231162,0,49.13,56.29,33.08,34.82
"2017-08-28 03:20:00",303201,0,0,15.12,99.9,0,0,869.6895,0,1.801,3.077,292,20.86,20.84,0.4661135,0,49.13,56.29,33.08,34.82
"2017-08-28 03:30:00",303202,0.02,105.5,15.2,98.8,0,0,869.7823,0,2.456,3.072,283,20.84,20.84,0.5835893,0,49.13,56.23,33.08,34.8
"2017-08-28 03:40:00",303203,0.143,185.6,14.79,98.9,0,0,869.6813,0,2.812,3.069,260,20.82,20.84,0.2046352,0,49.13,56.23,33.08,34.8
"2017-08-28 03:50:00",303204,0.008,227.2,15.41,96.9,0,0,869.6813,0,2.163,3.073,244,20.77,20.84,1.133073,0,49.13,56.23,33.08,34.8
"2017-08-28 04:00:00",303205,0,218.6,15.23,95.6,0,0,869.6813,0,1.895,3.077,238,20.78,20.84,0.5267462,0,49.13,56.23,33.08,34.8
"2017-08-28 04:10:00",303206,0.06,194.8,15.02,98.2,0,0,869.6813,0,1.73,3.08,232,20.75,20.84,0.3334796,0,49.13,56.23,33.08,34.8
"2017-08-28 04:20:00",303207,0.143,185.3,14.95,99.5,0,0,869.6813,0,1.477,3.082,235,20.7,20.83,0.4547449,0,49.08,56.23,33.07,34.8
"2017-08-28 04:30:00",303208,0.089,176.6,15.34,96.5,0,0,869.6754,0,1.412,3.078,237,20.67,20.83,1.026966,0,49.08,56.23,33.07,34.8
"2017-08-28 04:40:00",303209,0.015,183.1,15.52,92.2,0,0,869.6746,0,0.868,3.087,217,20.67,20.83,0.6707488,0,49.13,56.23,33.08,34.8
"2017-08-28 04:50:00",303210,0.111,175.8,15.14,96.8,0,0,869.6782,0,1.262,3.082,221,20.69,20.82,0.3562168,0,49.08,56.23,33.07,34.8
"2017-08-28 05:00:00",303211,0,0,15.66,89.9,0,0,869.6783,0,0.953,3.082,218,20.67,20.82,0.9398062,0,49.08,56.23,33.07,34.8
"2017-08-28 05:10:00",303212,0.038,203.4,16.02,85.5,0,0,869.7902,0,1.269,3.078,230,20.67,20.81,1.121704,0,49.13,56.23,33.08,34.8
"2017-08-28 05:20:00",303213,0.121,190.2,15.42,91.2,0,0,869.8808,0,1.382,3.082,230,20.66,20.8,0.1098967,0,49.08,56.23,33.07,34.8
"2017-08-28 05:30:00",303214,0.233,189,15.03,95,0.943268,0,869.7236,0,-0.033,3.096,205,20.65,20.8,0.2993737,0.239,49.08,56.23,33.07,34.8
"2017-08-28 05:40:00",303215,0.134,189.1,15.21,93.9,7.679774,0,869.8635,0,0.283,3.092,205,20.6,20.8,1.629503,0.218,49.08,56.23,33.07,34.8
"2017-08-28 05:50:00",303216,0.227,189.9,15.15,94.5,15.21806,0,869.9283,0,0.765,3.088,218,20.57,20.8,2.622362,0.174,49.08,56.23,33.07,34.8
"2017-08-28 06:00:00",303217,0.087,193.4,15.25,94,26.40757,0,869.9327,0,0.93,3.085,228,20.58,20.8,4.346603,0.165,49.08,56.23,33.07,34.8
"2017-08-28 06:10:00",303218,0.023,193.5,15.36,94.1,42.85581,0,869.9843,0,1.934,3.075,243,20.57,20.81,6.571064,0.153,49.08,56.18,33.07,34.79
"2017-08-28 06:20:00",303219,0.074,191.1,15.4,94.1,56.2738,0,870.1868,0,1.547,3.079,236,20.5,20.8,8.333201,0.148,49.08,56.23,33.07,34.8
"2017-08-28 06:30:00",303220,0.214,190,15.57,92.9,67.96246,0,870.1761,0,1.894,3.074,233,20.5,20.79,9.962704,0.147,49.08,56.18,33.07,34.79
"2017-08-28 06:40:00",303221,0.035,190.3,16.06,90,73.37839,0,870.1829,0,0.841,3.081,213,20.51,20.78,10.72819,0.146,49.08,56.18,33.07,34.79
"2017-08-28 06:50:00",303222,0.01,189.7,16.14,90.5,81.72239,0,870.1478,0,1.292,3.078,228,20.53,20.78,11.34968,0.139,49.08,56.18,33.07,34.79
"2017-08-28 07:00:00",303223,0.092,176.8,16.16,92,79.77689,0,870.072,0,1.015,3.08,229,20.47,20.76,10.71682,0.134,49.13,56.18,33.08,34.79
"2017-08-28 07:10:00",303224,0,0,16.42,90.6,106.4871,0,870.1396,0,-0.791,3.095,198,20.45,20.77,15.02174,0.141,49.08,56.18,33.07,34.79
"2017-08-28 07:20:00",303225,0,0,16.94,86.5,156.8694,0,870.3338,0,-0.539,3.09,202,20.45,20.75,22.82819,0.146,49.08,56.18,33.07,34.79
"2017-08-28 07:30:00",303226,0.127,122,17.16,85.1,154.3894,0,870.3795,0,-0.039,3.084,197,20.44,20.73,22.34313,0.145,49.08,56.18,33.07,34.79
"2017-08-28 07:40:00",303227,0.514,130.3,17.41,84.2,177.7746,0,870.3299,0,1.699,3.066,251,20.42,20.68,29.06957,0.163,49.13,56.12,33.08,34.78
"2017-08-28 07:50:00",303228,0.429,130.4,17.83,81.1,175.0849,0,870.2433,0,2.14,3.059,232,20.41,20.69,26.85247,0.153,49.08,56.18,33.07,34.79
"2017-08-28 08:00:00",303229,0.08,92.2,18.45,77.18,244.6632,0,870.3177,0,1.713,3.06,230,20.4,20.67,33.57413,0.138,49.13,56.12,33.08,34.78
"2017-08-28 08:10:00",303230,0.162,353.3,19.04,73.83,414.2305,0,870.3474,0,2.929,3.046,292,20.39,20.68,50.05253,0.123,49.08,56.18,33.07,34.79
"2017-08-28 08:20:00",303231,0.254,104.2,19.06,76.75,341.0106,0,870.3469,0,3.294,3.043,232,20.38,20.65,41.3623,0.122,49.08,56.12,33.07,34.78
"2017-08-28 08:30:00",303232,0.34,128.2,19.25,75.52,419.9425,0,870.2752,0,3.429,3.04,233,20.36,20.63,52.75651,0.127,49.03,56.12,33.05,34.78
"2017-08-28 08:40:00",303233,0.591,117.3,19.46,72.06,322.3889,0,870.2436,0,3.377,3.039,221,20.34,20.59,59.25468,0.183,49.13,56.12,33.08,34.78
"2017-08-28 08:50:00",303234,0.416,119,19.19,73.1,243.8024,0,870.1004,0,3.696,3.038,225,20.33,20.59,34.50557,0.141,49.08,56.12,33.07,34.78
"2017-08-28 09:00:00",303235,0.229,133.1,19.18,73.94,249.9777,0,870.0941,0,3.7,3.038,213,20.32,20.58,35.75821,0.143,49.08,56.12,33.07,34.78
"2017-08-28 09:10:00",303236,0.257,141.2,19.25,74.12,226.2779,0,870.0898,0,3.495,3.04,247,20.32,20.56,31.86328,0.141,49.08,56.12,33.07,34.78
"2017-08-28 09:20:00",303237,0.224,142.1,19.25,75.66,300.5652,0,870.0836,0,3.412,3.039,219,20.31,20.53,42.64446,0.142,49.08,56.12,33.07,34.78
"2017-08-28 09:30:00",303238,0.286,161.8,19.93,73.37,540.36,0,869.9698,0,3.717,3.032,269,20.29,20.55,72.30261,0.141,49.08,56.12,33.07,34.78
"2017-08-28 09:40:00",303239,1.054,130.9,20.16,69.09,685.0826,0,869.8415,0,3.223,3.037,219,20.33,20.56,76.71969,0.116,49.03,56.12,33.05,34.78
"2017-08-28 09:50:00",303240,0.562,127.4,20.24,68.83,422.3343,0,869.8204,0,2.945,3.039,206,20.39,20.52,64.10859,0.152,49.03,56.12,33.05,34.78
"2017-08-28 10:00:00",303241,0.669,122.4,20.86,69.35,421.2774,0,869.7425,0,3.275,3.032,250,20.39,20.5,83.73552,0.202,49.08,56.06,33.07,34.76
"2017-08-28 10:10:00",303242,0.71,128.4,20.54,68.16,412.9991,0,869.6162,0,2.661,3.044,211,20.36,20.49,59.15734,0.143,49.03,56.06,33.05,34.76
"2017-08-28 10:20:00",303243,0.51,136.6,20.03,71.2,315.9825,0,869.5847,0,3.073,3.04,210,20.36,20.45,47.01612,0.149,49.03,56.06,33.05,34.76
"2017-08-28 10:30:00",303244,0.226,116,20.07,72.03,284.2393,0,869.5657,0,3.268,3.037,215,20.35,20.43,42.03876,0.148,48.97,56.06,33.04,34.76
"2017-08-28 10:40:00",303245,0.041,25.12,20.04,74.12,268.8793,0,869.4078,0,3.385,3.037,212,20.38,20.44,39.02684,0.145,49.03,56.06,33.05,34.76
"2017-08-28 10:50:00",303246,0.013,178.4,20.35,72.02,336.464,0,869.3699,0,2.38,3.044,207,20.47,20.44,48.46701,0.144,48.97,56.06,33.04,34.76
"2017-08-28 11:00:00",303247,0.207,89.8,20.48,71.49,311.8603,0,869.4014,0,2.795,3.04,203,20.45,20.44,43.65584,0.139,48.97,56.06,33.04,34.76
"2017-08-28 11:10:00",303248,0.097,159.2,20.2,74.09,173.2901,0,869.4056,0,3.189,3.038,212,20.41,20.47,21.52485,0.123,48.97,56,33.04,34.75
"2017-08-28 11:20:00",303249,0.15,81,20.09,76.06,250.8632,0,869.5193,0,3.179,3.039,210,20.44,20.49,34.71175,0.138,48.92,56,33.03,34.75
"2017-08-28 11:30:00",303250,0.16,93.4,20.12,78.28,264.5166,0,869.3825,0,3.061,3.039,233,20.53,20.49,37.96211,0.143,48.97,56,33.04,34.75
"2017-08-28 11:40:00",303251,0.304,322.8,20.24,77.14,255.5733,0,869.3129,0,2.926,3.043,221,20.53,20.49,36.98138,0.145,48.92,56,33.03,34.75
"2017-08-28 11:50:00",303252,0.205,358.9,19.71,79.54,260.8448,0,869.094,0,2.222,3.048,225,20.53,20.49,38.68592,0.147,48.92,56,33.03,34.75
"2017-08-28 12:00:00",303253,0.745,139.2,20.52,76.1,815.0875,0,868.9108,0,2.593,3.039,212,20.62,20.49,130.612,0.157,48.97,56,33.04,34.75
"2017-08-28 12:10:00",303254,0.599,135.3,20.68,72.23,554.3622,0,868.8308,0,3.563,3.031,213,20.64,20.48,84.80875,0.149,48.97,56,33.04,34.75
"2017-08-28 12:20:00",303255,0.269,296.5,21.89,71.16,827.4507,0,868.816,0,3.768,3.023,220,20.6,20.43,131.6807,0.151,48.97,56,33.04,34.75
"2017-08-28 12:30:00",303256,0.43,43.37,21.53,71.76,427.4586,0,868.6097,0,4.717,3.017,291,20.71,20.43,62.34342,0.137,48.92,56,33.03,34.75
"2017-08-28 12:40:00",303257,0.249,98,21.27,74.02,264.6658,0,868.5781,0,3.586,3.029,224,20.71,20.46,35.07545,0.127,48.92,56,33.03,34.75
"2017-08-28 12:50:00",303258,0.2,150,20.9,75.15,250.49,0,868.5781,0,5.755,3.009,416,20.7,20.49,35.55653,0.132,48.92,56,33.03,34.75
"2017-08-28 13:00:00",303259,0.243,144.7,21.07,76.81,271.3488,0,868.4182,0,3.22,3.035,221,20.72,20.49,37.83706,0.131,48.92,55.95,33.03,34.74
"2017-08-28 13:10:00",303260,0.101,77.54,20.66,77.91,274.3858,0,868.3255,0,2.758,3.039,216,20.79,20.49,38.07193,0.129,48.86,55.95,33.01,34.74
"2017-08-28 13:20:00",303261,0.076,80.8,20.85,77.31,171.2863,0,868.3255,0,1.976,3.047,202,20.79,20.49,21.47181,0.12,48.86,55.95,33.01,34.74
"2017-08-28 13:30:00",303262,0.262,294.8,20.59,77.55,310.9485,0,868.3255,0,3.182,3.034,207,20.76,20.48,46.00133,0.136,48.86,55.95,33.01,34.74
"2017-08-28 13:40:00",303263,0.204,316.3,21.52,73.6,849.767,0,868.3255,0,3.05,3.029,255,20.84,20.47,129.7568,0.151,48.86,55.95,33.01,34.74
"2017-08-28 13:50:00",303264,0.319,306.1,22.12,71.6,848.9376,0,868.1002,0,1.918,3.039,253,20.84,20.4,112.7781,0.129,48.81,55.95,33,34.74
"2017-08-28 14:00:00",303265,0.61,17.2,22.61,67.37,853.5473,0,867.9591,0,-38.26,3.423,248,20.91,20.36,99.2076,0.116,48.81,55.89,33,34.72
"2017-08-28 14:10:00",303266,0.49,315,22.15,69.03,480.8258,0,868.0455,0,5.917,3.003,338,20.88,20.37,68.99183,0.143,48.75,55.89,32.99,34.72
"2017-08-28 14:20:00",303267,0.467,324,21.94,69.17,603.9698,0,867.936,0,5.57,3.007,350,20.91,20.37,57.72921,0.096,48.75,55.89,32.99,34.72
"2017-08-28 14:30:00",303268,0.41,345.6,22.13,68.23,642.1628,0,867.9255,0,3.965,3.018,245,20.99,20.37,59.10431,0.095,48.75,55.89,32.99,34.72
"2017-08-28 14:40:00",303269,0.605,20.3,22.55,66.96,362.905,0,868.0665,0,0.279,3.055,208,20.98,20.36,51.92936,0.147,48.75,55.89,32.99,34.72
"2017-08-28 14:50:00",303270,0.301,311.1,22.08,68.66,273.2465,0,868.0729,0,-35.78,3.404,252,21.03,20.36,39.99636,0.146,48.7,55.89,32.97,34.72
"2017-08-28 15:00:00",303271,0.244,22.12,21.7,69.22,232.134,0,868.0729,0,2.673,3.036,206,21.06,20.37,32.66988,0.14,48.7,55.83,32.97,34.71
"2017-08-28 15:10:00",303272,0.442,299.1,21.47,71.89,179.5923,0,868.0012,0,2.661,3.037,229,21.12,20.36,25.66164,0.138,48.75,55.83,32.99,34.71
"2017-08-28 15:20:00",303273,0.386,287.9,21.33,71,126.3259,0,867.8243,0,3.087,3.034,217,21.19,20.37,15.39955,0.122,48.7,55.83,32.97,34.71
"2017-08-28 15:30:00",303274,0.292,10.08,21.32,70.6,137.161,0,867.917,0,2.769,3.035,321,21.26,20.39,18.85866,0.137,48.7,55.89,32.97,34.72
"2017-08-28 15:40:00",303275,0.179,336,21.31,71.13,117.351,0,867.8265,0,4.354,3.022,225,21.28,20.41,14.66876,0.125,48.65,55.89,32.96,34.72
"2017-08-28 15:50:00",303276,0.243,117.6,21.17,74.15,111.2085,0,867.8202,0,4.286,3.022,253,21.31,20.41,12.94488,0.117,48.65,55.83,32.96,34.71
"2017-08-28 16:00:00",303277,0.352,60.6,21.26,70.97,96.07771,0,867.8223,0,4.156,3.023,250,21.44,20.41,11.73639,0.122,48.65,55.77,32.96,34.7
"2017-08-28 16:10:00",303278,0.356,18.85,21.18,72.48,105.0119,0,867.8981,0,0.909,3.054,196,21.41,20.44,13.59314,0.129,48.59,55.83,32.95,34.71
"2017-08-28 16:20:00",303279,0.23,39.65,21.18,72.75,104.7129,0,867.8917,0,5.428,3.012,360,21.46,20.46,13.17685,0.126,48.65,55.83,32.96,34.71
"2017-08-28 16:30:00",303280,0.203,75.34,21,72.89,95.70216,0,867.8791,0,0.776,3.057,204,21.57,20.48,11.74135,0.123,48.59,55.83,32.95,34.71
"2017-08-28 16:40:00",303281,0.157,173.9,20.76,76.02,84.26433,0,867.8265,0,0.307,3.064,190,21.56,20.48,10.22216,0.121,48.59,55.83,32.95,34.71
"2017-08-28 16:50:00",303282,0.081,170.1,20.39,77.35,73.62046,0,867.8202,0,0.318,3.065,190,21.54,20.5,8.585538,0.117,48.59,55.77,32.95,34.7
"2017-08-28 17:00:00",303283,0.03,26.51,20.28,76.83,70.55687,0,867.8202,0,0.904,3.06,203,21.54,20.5,8.763795,0.124,48.59,55.77,32.95,34.7
"2017-08-28 17:10:00",303284,0,0,20.16,78.95,67.35491,0,867.816,0,0.848,3.061,204,21.53,20.54,8.566861,0.127,48.54,55.77,32.93,34.7
"2017-08-28 17:20:00",303285,0,0,20.09,80.1,68.62355,0,867.797,0,0.975,3.06,207,21.52,20.54,8.835794,0.129,48.59,55.77,32.95,34.7
"2017-08-28 17:30:00",303286,0,0,19.96,80.6,64.88682,0,867.7549,0,1.093,3.06,206,21.54,20.55,8.407693,0.13,48.59,55.77,32.95,34.7
"2017-08-28 17:40:00",303287,0.22,109.7,19.82,81.7,54.40269,0,867.7949,0,0.596,3.065,208,21.56,20.54,7.16116,0.132,48.54,55.77,32.93,34.7
"2017-08-28 17:50:00",303288,0.298,118.6,19.69,82.2,37.0932,0,867.8202,0,1.667,3.056,225,21.56,20.55,4.906828,0.133,48.54,55.77,32.93,34.7
"2017-08-28 18:00:00",303289,0.336,122.3,19.48,83,19.62531,0,867.797,0,0.576,3.067,210,21.58,20.55,2.515932,0.128,48.54,55.77,32.93,34.7
"2017-08-28 18:10:00",303290,0.275,148.4,19.23,85,9.125026,0,867.5948,0,-0.376,3.078,218,21.61,20.57,1.030631,0.111,48.54,55.77,32.93,34.7
"2017-08-28 18:20:00",303291,0.234,171.1,19.14,83.3,3.39542,0,867.6749,0,-0.966,3.083,222,21.6,20.61,0.507747,0.157,48.54,55.72,32.93,34.68
"2017-08-28 18:30:00",303292,0.042,145.9,19.11,82.3,0.06680805,0,867.797,0,-1.01,3.085,208,21.6,20.65,0.04168074,0.079,48.48,55.77,32.92,34.7
"2017-08-28 18:40:00",303293,0.187,110,19.04,82.9,0.04715914,0,867.8307,0,-0.609,3.08,206,21.6,20.65,0.1402002,0.193,48.48,55.72,32.92,34.68
"2017-08-28 18:50:00",303294,0.277,132.2,19.11,83,0,0,867.8559,0,0.366,3.071,225,21.6,20.65,0.227353,0,48.54,55.72,32.93,34.68
"2017-08-28 19:00:00",303295,0.348,135.6,18.88,85,0,0,867.7885,0,-0.25,3.079,212,21.61,20.65,0.003789256,0,48.54,55.72,32.93,34.68
"2017-08-28 19:10:00",303296,0.211,259.7,18.71,84.7,0,0,867.9612,0,0.09,3.075,205,21.61,20.65,0.0568405,0,48.48,55.72,32.92,34.68
"2017-08-28 19:20:00",303297,0.232,105.7,18.76,84.6,0,0,868.075,0,-0.358,3.08,207,21.64,20.68,0.09473509,0,48.48,55.72,32.92,34.68
"2017-08-28 19:30:00",303298,0.182,150.4,18.52,87,0,0,868.0768,0,0.253,3.075,215,21.69,20.74,0,0,48.48,55.72,32.92,34.68
"2017-08-28 19:40:00",303299,0.13,160.8,18.37,87.8,0,0,868.0759,0,-0.484,3.084,208,21.69,20.76,0,0,48.48,55.66,32.92,34.67
"2017-08-28 19:50:00",303300,0.262,125.7,18.04,89.3,0,0,868.113,0,0.649,3.073,211,21.64,20.79,0.02273672,0,48.48,55.72,32.92,34.68
"2017-08-28 20:00:00",303301,0.332,27.26,18.35,89.2,0.04716287,0,868.3255,0,-0.289,3.08,249,21.54,20.82,0.4585281,0.514,48.48,55.72,32.92,34.68
"2017-08-28 20:10:00",303302,0.103,28.87,18.54,88.4,0.03144171,0,868.3255,0,0.208,3.075,224,21.53,20.8,0.5570469,0.386,48.48,55.72,32.92,34.68
"2017-08-28 20:20:00",303303,0,0,18.65,88,0,0,868.3276,0,0.37,3.073,232,21.53,20.78,0.2766232,0,48.48,55.66,32.92,34.67
"2017-08-28 20:30:00",303304,0.003,109.2,18.62,88.4,0,0,868.3298,0,0.67,3.071,348,21.58,20.76,0.1136795,0,48.48,55.72,32.92,34.68
"2017-08-28 20:40:00",303305,0.108,111.1,18.42,89.8,0,0,868.4561,0,0.456,3.074,349,21.57,20.75,0,0,48.43,55.72,32.9,34.68
"2017-08-28 20:50:00",303306,0.155,44.66,18.32,90.3,0,0,868.5781,0,1.639,3.063,405,21.48,20.74,0,0,48.48,55.72,32.92,34.68
"2017-08-28 21:00:00",303307,0.049,355,18.3,90.7,0,0,868.5781,0,3.185,3.048,448,21.44,20.75,0.07199843,0,48.48,55.72,32.92,34.68
"2017-08-28 21:10:00",303308,0.023,88.2,18.12,92,0,0,868.5781,0,-38.12,3.449,241,21.44,20.74,0,0,48.48,55.66,32.92,34.67
"2017-08-28 21:20:00",303309,0.001,140.2,18.01,93.1,0,0,868.5823,0,3.135,3.049,361,21.47,20.74,0.0871537,0,48.48,55.66,32.92,34.67
"2017-08-28 21:30:00",303310,0.02,138.1,17.99,93.4,0,0,868.7318,0,3.548,3.047,383,21.48,20.75,0.1932553,0,48.43,55.66,32.9,34.67
"2017-08-28 21:40:00",303311,0.058,132.2,17.76,93.3,0,0,868.7571,0,3.887,3.044,403,21.46,20.76,0,0,48.48,55.66,32.92,34.67
"2017-08-28 21:50:00",303312,0.023,149.4,17.69,92.9,0,0,868.6119,0,3.126,3.052,372,21.4,20.81,0,0,48.48,55.66,32.92,34.67
"2017-08-28 22:00:00",303313,0.096,62.33,17.9,93.7,0.03930217,0,868.5781,0,2.45,3.056,341,21.36,20.84,0.4054721,0.546,48.43,55.66,32.9,34.67
"2017-08-28 22:10:00",303314,0.095,354.7,18.17,92.4,0.2083033,0,868.595,0,3.594,3.044,376,21.36,20.84,0.68969,1.936,48.48,55.66,32.92,34.67
"2017-08-28 22:20:00",303315,0.068,300.7,18.33,91,0.07467511,0,868.6202,0,4.43,3.035,361,21.37,20.84,0.4699013,0.675,48.48,55.66,32.92,34.67
"2017-08-28 22:30:00",303316,0.04,144.6,18.37,90.3,0,0,868.595,0,3.357,3.047,394,21.37,20.85,0.3031566,0,48.48,55.66,32.92,34.67
"2017-08-28 22:40:00",303317,0.148,150.8,18.03,93,0,0,868.5781,0,2.762,3.053,376,21.36,20.87,0,0,48.48,55.66,32.92,34.67
"2017-08-28 22:50:00",303318,0.338,118.8,17.94,93.8,0,0,868.574,0,3.323,3.048,377,21.34,20.87,0.06821074,0,48.43,55.66,32.9,34.67
"2017-08-28 23:00:00",303319,0.331,85.2,18.13,92.7,0,0,868.5781,0,2.326,3.057,319,21.28,20.88,0.2576822,0,48.43,55.6,32.9,34.65
"2017-08-28 23:10:00",303320,0.226,90.5,18.22,92,0,0,868.576,0,3.597,3.044,372,21.27,20.91,0.2387348,0,48.43,55.6,32.9,34.65
"2017-08-28 23:20:00",303321,0.049,104.4,18.2,92.3,0,0,868.5002,0,4.414,3.037,432,21.27,20.89,0.1477879,0,48.43,55.6,32.9,34.65
"2017-08-28 23:30:00",303322,0.005,30.07,18.04,93.8,0,0,868.3782,0,4.872,3.033,413,21.28,20.9,0.0189474,0,48.48,55.6,32.92,34.65
"2017-08-28 23:40:00",303323,0.162,66.05,18.07,94.2,0,0,868.3487,0,4.78,3.033,435,21.27,20.92,0.2235781,0,48.43,55.6,32.9,34.65
"2017-08-28 23:50:00",303324,0.088,146.4,17.98,94.8,0,0,868.2602,0,4.504,3.037,426,21.28,20.92,0,0,48.43,55.6,32.9,34.65
